Simultaneous Nadir Overpasses (SNOs) Predictions

Prediction of SNOs between GOES-16 and TERRA Satellite Orbit:

Table of predicted SNOs for the next 14.0 days since TLE Epoch: 7/25/2025
Index Date Time (GOES-16) GOES-16 Lat,Lon TERRA Lat,Lon Distance(km) Time Diff (sec)
1 07/27/2025 16:05:12 -0.02,-104.74 -0.59,-102.06 304.99 80
2 07/28/2025 04:27:28 0.02,-104.71 -0.40,-106.83 239.95 80
3 07/30/2025 04:05:35 0.02,-104.72 0.55,-102.20 286.67 80
4 07/30/2025 16:27:42 -0.02,-104.75 0.41,-106.93 247.46 80
5 08/01/2025 16:05:49 -0.02,-104.76 -0.56,-102.30 279.26 80
6 08/02/2025 04:28:04 0.02,-104.73 -0.49,-107.06 265.70 80
7 08/04/2025 04:06:11 0.02,-104.73 0.49,-102.43 260.74 80
8 08/04/2025 16:28:17 -0.01,-104.76 0.46,-107.17 273.41 80
9 08/06/2025 16:06:23 -0.02,-104.76 -0.48,-102.54 252.85 80
10 08/07/2025 04:28:39 0.02,-104.73 -0.51,-107.31 292.20 80
